New Haven, CT

3:28 AM EDT on June 25, 2017 (GMT -0400)
Tweed-New Haven

Weather History for KHVN - November, 2013

Change the Weather History Date:

Tuesday, November 19, 2013

  Actual Average Record
Temperature  
Mean Temperature 42 °F -  
Max Temperature 50 °F 49 °F 66 °F (1987)
Min Temperature 34 °F 35 °F 21 °F (2005)
Degree Days  
Heating Degree Days 22    
Moisture  
Dew Point 23 °F    
Average Humidity 46    
Maximum Humidity 55    
Minimum Humidity 37    
Precipitation  
Precipitation 0.00 in - - ()
Sea Level Pressure  
Sea Level Pressure 30.03 in    
Wind  
Wind Speed 12 mph (NW)    
Max Wind Speed 18 mph    
Max Gust Speed 30 mph    
Visibility 10 miles    
Events      
Averages and records for this station are not official NWS values.
T = Trace of Precipitation, MM = Missing Value Source: NWS Daily Summary

Daily Weather History Graph

Daily Weather History Graph

Search for Another Location

Airport or City:

Trip Planner

Search our weather history database for the weather conditions in past years. The results will help you decide how hot, cold, wet, or windy it might be!

Date:

Astronomy

Nov. 19, 2013 Rise Set
Actual Time 6:44 AM EST 4:28 PM EST
Civil Twilight 6:14 AM EST 4:58 PM EST
Nautical Twilight 5:41 AM EST 5:32 PM EST
Astronomical Twilight 5:08 AM EST 6:05 PM EST
Moon 6:17 PM EST (11/19) 8:21 AM EST (11/19)
Length of Visible Light 10h 44m
Length of Day
9h 44m
Waning Gibbous, 96% of the Moon is Illuminated
Nov 19
Waning Gibbous
Nov 25
Last Quarter
Dec 2
New
Dec 9
First Quarter
Dec 17
Full

Hourly Weather History & Observations

Time (EST) Temp. Windchill Dew Point Humidity Pressure Visibility Wind Dir Wind Speed Gust Speed Precip Events Conditions
12:53 AM 50.0 °F - 27.0 °F 41% 29.75 in 10.0 mi WNW 11.5 mph 20.7 mph N/A   Clear
1:53 AM 48.9 °F - 28.0 °F 44% 29.78 in 10.0 mi NW 16.1 mph 25.3 mph N/A   Clear
2:53 AM 46.9 °F - 28.0 °F 48% 29.79 in 10.0 mi WNW 10.4 mph 20.7 mph N/A   Clear
3:53 AM 45.0 °F 38.2 °F 25.0 °F 46% 29.83 in 10.0 mi NW 15.0 mph 29.9 mph N/A   Scattered Clouds
4:53 AM 44.1 °F 40.1 °F 24.1 °F 45% 29.86 in 10.0 mi NNW 6.9 mph 16.1 mph N/A   Clear
5:53 AM 43.0 °F 37.7 °F 24.1 °F 47% 29.88 in 10.0 mi WNW 9.2 mph 16.1 mph N/A   Clear
6:53 AM 42.1 °F 37.7 °F 23.0 °F 47% 29.91 in 10.0 mi WNW 6.9 mph - N/A   Scattered Clouds
7:53 AM 43.0 °F 38.8 °F 24.1 °F 47% 29.94 in 10.0 mi WNW 6.9 mph - N/A   Scattered Clouds
8:53 AM 45.0 °F 41.2 °F 24.1 °F 44% 29.96 in 10.0 mi Variable 6.9 mph - N/A   Scattered Clouds
9:53 AM 46.0 °F 40.2 °F 26.1 °F 46% 29.98 in 10.0 mi NNW 12.7 mph 19.6 mph N/A   Scattered Clouds
10:53 AM 46.9 °F - 25.0 °F 42% 29.99 in 10.0 mi NW 13.8 mph 24.2 mph N/A   Scattered Clouds
11:53 AM 48.0 °F - 24.1 °F 39% 30.00 in 10.0 mi NW 18.4 mph 28.8 mph N/A   Partly Cloudy
12:53 PM 48.0 °F - 25.0 °F 41% 30.01 in 10.0 mi NW 11.5 mph 25.3 mph N/A   Partly Cloudy
1:53 PM 48.0 °F - 23.0 °F 37% 30.04 in 10.0 mi NNW 15.0 mph 24.2 mph N/A   Partly Cloudy
2:53 PM 46.0 °F 40.2 °F 21.9 °F 39% 30.07 in 10.0 mi NW 12.7 mph 27.6 mph N/A   Partly Cloudy
3:53 PM 44.1 °F 37.7 °F 21.9 °F 42% 30.11 in 10.0 mi NW 12.7 mph 26.5 mph N/A   Partly Cloudy
4:53 PM 43.0 °F 37.2 °F 21.0 °F 42% 30.14 in 10.0 mi NNW 10.4 mph 23.0 mph N/A   Partly Cloudy
5:53 PM 41.0 °F 35.8 °F 21.0 °F 45% 30.18 in 10.0 mi NNW 8.1 mph - N/A   Clear
6:53 PM 39.0 °F 31.4 °F 21.9 °F 50% 30.22 in 10.0 mi North 12.7 mph 16.1 mph N/A   Clear
7:53 PM 37.0 °F 29.8 °F 21.0 °F 52% 30.24 in 10.0 mi North 10.4 mph 24.2 mph N/A   Clear
8:53 PM 36.0 °F 26.3 °F 21.0 °F 55% 30.25 in 10.0 mi NNW 16.1 mph 24.2 mph N/A   Clear
9:53 PM 35.1 °F 25.2 °F 19.0 °F 52% 30.26 in 10.0 mi NNW 16.1 mph 25.3 mph N/A   Clear
10:53 PM 35.1 °F 25.9 °F 18.0 °F 50% 30.28 in 10.0 mi NNW 13.8 mph 25.3 mph N/A   Clear
11:53 PM 34.0 °F 24.6 °F 18.0 °F 52% 30.31 in 10.0 mi NNW 13.8 mph 20.7 mph N/A   Clear